Location: ???????
(55.3754°N, 39.3545°E)
Time: 07:47:42
(UTC+00:00)

Cosmos 1802 Rocket - Pass Details

Date: 14 April 2026
Orbit: 952 x 1012 km, 82.9° (Epoch: 14 May)

Event Time Altitude Azimuth Distance (km) Brightness Sun altitude
Exits shadow 21:35:00 52° 214° (SW) 1,220 4.1 -24.9°
Maximum altitude 21:36:35 75° 283° (WNW) 1,031 4.0 -24.9°
Drops below altitude 10° 21:42:55 10° 9° (N) 2,746 7.4 -24.8°
Sets 21:45:26 0° 12° (NNE) 3,689 8.4 -24.8°
